Regional Weather Roundup
Issued by NWS

Home | Current Version | Previous Version | Graphics & Text | Print | Product List | Glossary On
Versions: 1 2 3 4 5 6 7 8 9 10 11 12 13 14 15 16 17 18 19 20 21 22 23 24 25 26 27 28 29 30 31 32 33 34 35 36 37 38 39 40 41 42 43 44 45 46 47 48 49 50
598
ASUS43 KMKX 291011
RWRWI

WISCONSIN REGIONAL WEATHER ROUNDUP
NATIONAL WEATHER SERVICE MILWAUKEE/SULLIVAN WI
500 AM CDT THU JUN 29 2017

NOTE: "FAIR" INDICATES FEW OR NO CLOUDS BELOW 12,000 FEET WITH NO
SIGNIFICANT WEATHER AND/OR OBSTRUCTIONS TO VISIBILITY.

WIZ001-002-006>008-014>016-023>028-291100-
NORTHWEST WISCONSIN

CITY           SKY/WX    TMP DP  RH WIND       PRES   REMARKS
SUPERIOR ARPT  NOT AVBL
ASHLAND        CLOUDY    55  53  93 SW13      29.55R
HAYWARD        CLOUDY    59  58  96 VRB5      29.59R
SIREN          CLOUDY    61  59  94 NW12G17   29.62R
CUMBERLAND     CLOUDY    61  57  88 W13       29.62R
RICE LAKE      CLOUDY    63  60  90 W7        29.63R
CHETEK         CLOUDY    63  62  97 W3        29.63R
LADYSMITH      CLOUDY    63  61  94 W12G18    29.62R
EAU CLAIRE     CLOUDY    64  61  90 W7        29.62S
MENOMONIE      CLOUDY    65  61  89 W8        29.64R
NEW RICHMOND   CLOUDY    63  57  80 W9        29.65R
OSCEOLA        CLOUDY    64  64 100 W8        29.67R
$$

WIZ003>005-009-010-017-018-291100-
NORTH CENTRAL WISCONSIN

CITY           SKY/WX    TMP DP  RH WIND       PRES   REMARKS
MANITOWISH WTR DRIZZLE   63  63 100 SW6       29.56R
ARBOR VITAE    CLOUDY    63  62  95 SW6       29.57S
WOODRUFF       CLOUDY    63  62  95 SW6       29.57S
RHINELANDER    LGT RAIN  63  63 100 SW9       29.59S
EAGLE RIVER    MOCLDY    63  63 100 SW5       29.57S
LAND O LAKES   CLOUDY    64  64  97 S5        29.58S
PHILLIPS       CLOUDY    61  61 100 W5        29.58R
TOMAHAWK       NOT AVBL
MEDFORD        CLOUDY    63  61  93 SW8       29.62R
MERRILL        CLOUDY    64  64 100 SW6       29.61S
$$

WIZ029-030-035-036-043>047-291100-
CENTRAL WISCONSIN

CITY           SKY/WX    TMP DP  RH WIND       PRES   REMARKS
WAUSAU         CLOUDY    64  64 100 SW6       29.61R
MOSINEE        CLOUDY    63  63 100 SW9       29.65R
MARSHFIELD     CLOUDY    64  62  93 W9        29.63R
STEVENS POINT  CLOUDY    62  62 100 S6        29.65R
WAUPACA        CLEAR     66  65  97 SW6       29.64R
WAUTOMA        CLEAR     64  63  96 SW3       29.65R
WISC RAPIDS    CLOUDY    65  63  93 SW7       29.66R
CAMP DOUGLAS   PTCLDY    65  63  95 S7        29.65R
$$

WIZ011>013-019>022-031-037>040-048>050-291100-
NORTHEAST WISCONSIN

CITY           SKY/WX    TMP DP  RH WIND       PRES   REMARKS
ANTIGO         CLOUDY    64  64  98 W10       29.62S
SHAWANO        CLOUDY    68  64  88 SW6       29.62R
OCONTO         CLOUDY    67  64  88 SW7       29.61R
STURGEON BAY     N/A     60  59  96 S8        29.63R
GREEN BAY      PTCLDY    67  66  97 SW10      29.63R
MANITOWOC      PTCLDY    66  62  87 SW6       29.65R
APPLETON       PTCLDY    64  64 100 SW12      29.63R
CLINTONVILLE   MOCLDY    64  63  94 SW7       29.63R
OSHKOSH        CLOUDY    66  63  90 S10       29.63S
$$

WIZ032>034-041-042-053>061-291100-
SOUTHWEST WISCONSIN

CITY           SKY/WX    TMP DP  RH WIND       PRES   REMARKS
LA CROSSE      CLEAR     66  62  87 CALM      29.65R
SPARTA         CLEAR     61  61 100 SW3       29.67R
VIROQUA        PTCLDY    63  63 100 SW5       29.69R
BOSCOBEL       CLEAR     65  62  90 CALM      29.69R
PRAIRIE DU CHI PTCLDY    66  63  89 CALM      29.70R
PLATTEVILLE    MOCLDY    67  67  99 SW12      29.73R
$$

WIZ056-057-062-063-064-067-068-291100-
SOUTH CENTRAL WISCONSIN

CITY           SKY/WX    TMP DP  RH WIND       PRES   REMARKS
REEDSBURG      CLEAR     66  65  99 SW9       29.67R
BARABOO/DELLS  CLEAR     65  63  91 SW10      29.68R
LONE ROCK      CLEAR     67  63  87 SW6       29.69R
MINERAL POINT  CLOUDY    68  68 100 SW12      29.72R
MADISON        CLOUDY    69  66  90 SW8       29.68S
MIDDLETON      CLOUDY    69  68  94 SW13      29.69S
WATERTOWN      CLOUDY    66  66 100 SW6       29.68S
MONROE         MOCLDY    68  63  83 SW16G26   29.72R
JANESVILLE     MOCLDY    68  68 100 W14       29.70S
$$

WIZ051-052-058>065-066-070>072-291100-
SOUTHEAST WISCONSIN

CITY           SKY/WX    TMP DP  RH WIND       PRES   REMARKS
MILWAUKEE      CLOUDY    67  64  90 SW8       29.68S
WAUKESHA       MOCLDY    63  61  94 S7        29.70S
MILWAUKEE/TIMM CLOUDY    64  59  82 S10       29.69S
RACINE         CLOUDY    64  62  93 S8        29.71S
KENOSHA        MOCLDY    65  63  93 S8        29.70S
FOND DU LAC    PTCLDY    66  61  84 SW9       29.65S
SHEBOYGAN      PTCLDY    63  63 100 S8        29.65S
WEST BEND      LGT RAIN  64  63  94 SW10      29.66F
JUNEAU         CLOUDY    65  63  93 S8        29.68F
$$

LSZ147-162-291100-
LAKE SUPERIOR

STATION/POSITION TIME  TEMP    WIND        PRES    WAVE
                       AIR SEA DIR/SP/G            HT/PER
                 (UTC) (F)     (DEG/KT/KT) (MB)    (FT/S)
W MID LAKE BUOY  0950   44 39   40/ 14/ 17  999.3R   3/ 5
DEVILS ISLAND    1000   48      40/ 11/ 12  999.8R
SAXON HARBOR     0930   60     220/  6/ 10  999.7R
$$

LMZ867-665-643>646-291100-
LAKE MICHIGAN

STATION/POSITION TIME  TEMP    WIND        PRES    WAVE
                       AIR SEA DIR/SP/G            HT/PER
                 (UTC) (F)     (DEG/KT/KT) (MB)    (FT/S)
CHAMBERS ISLAND  0940   62     160/  4/  8 1002.4S
S GREEN BAY BUOY 1000   67     210/ 14/ 16 1002.8
N MID LAKE BUOY  0950   57 53  190/ 19/ 23 1003.5F   6/ 7
NORTHPORT PIER   0940   58     170/  7/ 17 1002.7F
KEWAUNEE LAKESHO 0948   54     180/  7/  9 1003.3R
SHEBOYGAN LAKESH 1000   58     180/ 12/ 13 1004.1R
PORT WASHINGTON  0940   54      40/  3/  3 1005.8S
ATWATER BUOY     0909   55 44  170/ 12/ 14 1005.4R
MILWAUKEE LAKESH 0950   66     200/  8/ 10   N/A
S MID LAKE BUOY  0950   65 60  160/ 17/ 27 1005.5F   3/ 4
KENOSHA   LAKESH 1000   63     190/  8/ 10 1005.8
$$

TC  - TEMPERATURE IN CELSIUS
VSB - VISIBILITY IN STATUTE MILES
WCI - WIND CHILL INDEX
HX  - HEAT INDEX





USA.gov is the U.S. government's official web portal to all federal, state and local government web resources and services.